Temp
66 66 63 61 48 45 41 49 59 60 59 61 66 64 61 65 63 54 71 75 74 74 74 75 74 75 75 75 75 75 76 76 77 77 77 76 76 76 76 76 76 77 77 77 77 76 76 75 75
63 70 62 55 42 36 39 53 55 61 65 66 66 64 63 62 69 69 70 75 76 74 74 74 72 74 75 75 75 75 76 76 76 76 76 76 76 76 76 76 76 76 77 76 76 76 75 74 74
66 69 55 48 42 38 42 53 55 62 66 63 62 64 63 64 68 70 73 76 75 74 74 73 72 74 75 74 75 75 75 75 76 76 76 76 75 75 75 75 75 75 76 76 75 75 74 73 73
62 59 55 43 41 48 53 57 58 59 64 63 62 58 64 69 71 74 76 76 74 74 74 71 72 74 74 74 74 75 75 75 75 75 75 75 75 74 74 74 74 75 74 74 73 73 72 71 70
59 53 43 40 43 50 57 60 62 59 58 61 64 59 60 69 74 75 74 75 70 71 73 72 72 73 74 74 74 74 74 74 74 74 74 74 74 73 73 73 72 72 72 71 71 70 70 69 69
50 50 39 39 43 52 57 62 63 60 59 61 60 58 61 71 70 71 72 71 72 71 72 72 68 70 71 73 73 73 73 74 73 74 73 73 72 72 72 71 71 71 70 70 69 69 69 68 68
47 43 39 41 45 50 56 65 59 58 58 59 61 57 59 66 70 69 71 71 70 72 71 70 70 69 67 69 70 71 71 71 71 71 71 70 70 70 70 69 69 69 69 68 67 67 67 67 67
51 46 40 40 43 48 57 58 64 60 57 66 67 56 55 63 70 69 71 70 69 70 69 69 68 67 66 67 65 66 67 68 67 66 65 65 65 65 65 64 67 67 67 66 66 66 66 66 66
59 41 38 43 46 51 62 55 60 62 59 60 64 61 63 68 67 65 66 68 67 68 69 68 66 66 65 65 62 63 64 64 63 63 62 61 59 58 58 62 64 65 65 65 65 66 65 63 62
49 40 44 54 57 54 58 56 56 56 56 56 61 61 64 65 64 62 63 63 63 65 64 65 64 64 63 64 62 62 62 62 61 59 59 58 56 55 56 57 61 62 62 65 65 64 62 58 53
51 43 51 55 58 58 55 54 58 53 51 56 57 60 63 59 61 61 61 62 65 64 63 63 63 63 62 62 60 60 60 57 59 59 57 56 55 52 51 50 50 50 54 52 54 53 52 52 52
45 53 54 56 59 54 52 57 53 53 54 60 61 62 61 59 59 61 61 62 62 63 63 62 62 62 62 61 60 60 59 58 59 59 58 55 52 51 51 50 49 49 49 49 48 48 51 51 53
48 51 56 57 56 54 55 52 51 53 58 62 62 62 60 61 60 61 63 62 62 62 61 61 61 61 61 60 60 60 58 59 60 59 58 55 53 51 51 50 49 48 48 47 47 47 48 49 51
51 51 52 54 54 55 51 51 49 52 58 57 60 59 59 61 62 60 60 60 60 61 60 60 61 62 61 60 60 59 59 60 59 58 57 57 53 52 51 49 48 47 47 47 47 47 47 47 49
52 44 47 50 53 51 54 46 47 54 54 55 58 57 59 59 62 62 62 62 62 61 60 59 61 62 61 61 60 59 60 60 57 55 55 56 54 53 51 48 47 47 48 48 47 47 47 46 48
44 44 38 51 54 53 51 39 51 55 50 52 55 53 56 59 61 62 63 63 65 61 60 60 63 62 61 61 58 60 58 56 56 55 54 54 54 53 50 48 47 47 47 47 45 44 44 43 43
38 31 36 44 54 51 47 41 52 55 52 52 51 52 53 56 59 62 64 65 64 63 59 59 61 60 60 59 56 57 56 55 54 54 52 52 52 52 49 47 46 47 46 45 45 43 42 41 42
31 32 38 37 47 47 42 41 49 53 52 51 53 51 52 54 56 62 65 63 62 62 60 60 61 60 60 58 55 53 54 53 52 52 51 51 50 50 47 46 46 46 44 43 42 42 42 41 41
38 35 33 40 47 42 41 39 44 52 51 50 51 49 50 52 58 60 61 57 59 60 59 59 58 58 59 56 54 52 53 52 50 50 49 49 49 49 47 45 45 45 43 42 43 41 41 41 40
36 32 32 39 45 42 40 41 47 50 52 53 53 52 51 51 52 56 58 54 56 59 59 59 58 58 58 56 55 53 52 50 51 48 48 48 48 48 47 45 44 44 42 42 41 40 39 40 40
35 32 32 34 39 40 36 32 39 47 51 51 49 49 48 47 47 49 51 51 52 56 58 59 59 59 58 56 53 51 48 47 46 45 44 45 47 46 46 44 43 42 42 40 39 40 40 38 39
30 39 38 37 31 23 35 18 33 42 43 45 46 46 46 47 48 49 48 48 48 52 59 60 60 59 58 55 54 51 51 49 48 47 45 44 45 45 44 44 43 42 41 40 39 41 39 39 37
35 40 37 35 29 26 28 20 31 41 37 40 43 44 45 46 47 47 47 48 48 51 51 59 59 58 57 55 55 52 51 50 47 44 43 42 42 43 43 42 41 41 40 39 39 38 39 39 37
41 37 35 32 28 9 26 25 28 35 39 40 42 44 44 45 45 46 48 49 47 48 49 53 57 57 55 55 54 52 50 46 45 44 41 40 39 40 41 42 40 40 39 38 38 38 38 38 37
37 28 8 10 9 12 29 26 30 39 42 41 40 41 43 45 45 45 44 45 46 46 46 49 51 53 53 54 52 51 50 48 46 44 42 40 39 37 38 39 38 38 39 39 38 37 37 37 36
32 28 13 9 9 17 30 21 33 42 42 43 42 42 42 43 44 44 44 44 44 45 46 46 47 49 50 51 48 49 48 48 47 45 44 43 41 40 39 39 39 39 39 38 38 37 36 37 36
30 24 34 14 10 11 22 30 41 42 38 38 38 39 38 40 41 41 43 43 43 43 44 43 44 47 48 47 46 47 46 46 46 44 43 42 40 41 39 39 38 38 38 38 37 35 35 37 39
32 35 21 16 5 3 18 24 25 30 31 33 34 35 35 39 40 40 40 40 42 42 43 43 43 44 47 47 47 46 45 46 45 44 42 41 40 41 39 38 38 37 37 38 37 35 37 38 38
24 19 22 24 21 10 8 17 34 31 31 30 33 34 34 36 37 38 38 39 39 40 40 40 41 42 44 46 45 44 43 43 44 43 41 40 40 40 39 38 38 37 37 37 36 37 38 37 37
29 25 24 17 13 16 15 18 35 33 34 35 35 34 34 35 35 36 35 36 37 37 37 38 39 39 42 44 44 42 41 41 41 40 40 39 39 39 38 38 37 37 37 37 37 36 38 36 36
MSLP
1014.93 1014.77 1015.24 1015.33 1016.29 1016.12 1015.65 1014.13 1012.40 1011.36 1010.29 1009.74 1009.58 1009.83 1010.14 1010.21 1010.44 1011.30 1011.09 1011.11 1011.41 1012.01 1012.75 1012.92 1013.19 1013.50 1013.85 1014.18 1014.56 1014.78 1014.89 1015.00 1015.21 1015.44 1015.72 1016.01 1016.23 1016.47 1016.71 1016.84 1016.93 1017.03 1017.10 1017.22 1017.44 1017.58 1017.72 1017.65 1017.76
1015.16 1014.96 1015.43 1015.82 1016.47 1016.36 1015.34 1013.34 1012.25 1010.88 1009.99 1009.53 1009.68 1009.77 1010.00 1010.28 1010.35 1010.82 1010.94 1011.53 1011.33 1011.89 1012.53 1013.07 1013.36 1013.63 1013.94 1014.27 1014.66 1014.92 1015.10 1015.35 1015.53 1015.72 1015.99 1016.23 1016.45 1016.67 1016.97 1017.16 1017.27 1017.31 1017.37 1017.54 1017.68 1017.87 1017.99 1018.01 1018.11
1015.37 1015.34 1015.88 1016.11 1016.10 1015.94 1014.69 1012.69 1011.57 1010.38 1009.69 1009.73 1009.90 1009.92 1010.04 1010.43 1010.61 1010.76 1010.75 1011.35 1011.61 1012.09 1012.50 1013.05 1013.55 1013.83 1014.04 1014.38 1014.75 1015.03 1015.21 1015.52 1015.77 1016.04 1016.30 1016.54 1016.73 1016.96 1017.18 1017.42 1017.56 1017.68 1017.78 1017.92 1018.10 1018.20 1018.31 1018.33 1018.38
1015.43 1015.37 1015.89 1015.90 1015.79 1014.86 1013.58 1012.11 1011.34 1010.55 1010.04 1009.90 1009.96 1010.26 1010.27 1010.37 1010.29 1010.45 1010.93 1011.37 1011.92 1012.16 1012.47 1013.11 1013.55 1013.96 1014.30 1014.55 1014.80 1015.09 1015.46 1015.73 1015.96 1016.23 1016.54 1016.89 1017.10 1017.20 1017.33 1017.62 1017.76 1017.93 1018.10 1018.34 1018.53 1018.56 1018.57 1018.69 1018.76
1015.53 1015.90 1016.24 1015.90 1015.32 1014.26 1012.98 1012.02 1011.27 1010.64 1010.35 1010.21 1010.08 1010.49 1010.74 1010.77 1010.37 1010.44 1011.04 1011.44 1011.86 1012.39 1012.64 1013.20 1013.64 1013.96 1014.41 1014.70 1014.89 1015.23 1015.52 1015.91 1016.17 1016.44 1016.75 1017.09 1017.45 1017.64 1017.76 1017.94 1018.08 1018.27 1018.54 1018.76 1018.88 1018.90 1018.91 1019.00 1018.99
1015.96 1015.98 1016.38 1015.95 1015.04 1013.82 1012.44 1011.17 1011.04 1010.57 1010.26 1010.40 1010.55 1010.69 1010.84 1010.62 1010.82 1010.84 1011.09 1011.65 1011.89 1012.35 1012.85 1013.36 1013.94 1014.13 1014.46 1014.82 1015.07 1015.39 1015.69 1016.04 1016.31 1016.67 1017.03 1017.38 1017.71 1017.98 1018.22 1018.43 1018.52 1018.63 1018.82 1018.96 1019.14 1019.21 1019.24 1019.32 1019.34
1015.96 1016.27 1015.99 1015.54 1014.88 1013.66 1012.27 1010.87 1010.60 1010.33 1010.20 1010.40 1010.49 1010.76 1010.89 1010.85 1010.90 1011.19 1011.33 1011.78 1012.13 1012.20 1012.86 1013.49 1014.01 1014.33 1014.57 1014.97 1015.26 1015.59 1015.97 1016.27 1016.55 1016.88 1017.28 1017.75 1018.02 1018.23 1018.53 1018.77 1018.97 1019.01 1019.08 1019.23 1019.34 1019.50 1019.46 1019.48 1019.51
1015.51 1016.12 1015.83 1015.25 1014.55 1013.16 1011.86 1010.91 1010.33 1010.28 1010.39 1010.08 1010.29 1010.82 1011.08 1011.00 1010.76 1010.96 1011.33 1011.84 1012.34 1012.72 1013.09 1013.50 1014.15 1014.51 1014.73 1015.17 1015.56 1015.85 1016.30 1016.58 1016.98 1017.31 1017.65 1018.14 1018.49 1018.76 1018.94 1019.12 1019.27 1019.44 1019.44 1019.44 1019.53 1019.63 1019.65 1019.53 1019.61
1014.97 1015.79 1015.50 1014.93 1014.22 1013.17 1011.97 1011.46 1010.60 1010.16 1010.36 1010.30 1010.37 1010.53 1010.85 1010.78 1011.03 1011.41 1011.57 1012.15 1012.66 1013.05 1013.34 1013.71 1014.27 1014.76 1015.05 1015.50 1015.93 1016.25 1016.61 1016.91 1017.33 1017.78 1018.14 1018.46 1018.88 1019.20 1019.39 1019.50 1019.58 1019.71 1019.82 1019.79 1019.72 1019.80 1019.80 1019.77 1019.83
1014.93 1015.14 1014.82 1014.19 1013.58 1013.40 1012.96 1012.37 1011.65 1011.11 1010.87 1010.76 1010.67 1010.91 1010.89 1010.91 1011.32 1011.67 1011.69 1012.35 1012.86 1013.32 1013.82 1014.02 1014.45 1014.93 1015.30 1015.84 1016.19 1016.52 1016.82 1017.13 1017.60 1018.08 1018.40 1018.69 1019.15 1019.49 1019.74 1019.81 1019.89 1019.98 1020.02 1019.98 1019.90 1020.06 1020.05 1020.25 1020.32
1014.61 1014.59 1014.42 1013.81 1013.51 1013.44 1013.17 1012.76 1012.23 1011.92 1011.60 1011.35 1011.37 1011.19 1011.60 1011.81 1011.64 1011.78 1012.10 1012.35 1012.45 1013.13 1013.81 1014.23 1014.48 1014.97 1015.29 1015.91 1016.47 1016.80 1016.97 1017.33 1017.77 1018.23 1018.50 1018.77 1019.30 1019.75 1020.07 1020.26 1020.27 1020.27 1020.26 1020.30 1020.29 1020.34 1020.41 1020.54 1020.65
1014.77 1014.46 1014.37 1013.89 1013.27 1013.43 1013.42 1012.71 1012.48 1012.23 1012.09 1011.55 1011.30 1011.32 1011.20 1011.83 1011.86 1011.84 1012.15 1012.37 1012.71 1013.17 1013.40 1014.18 1014.58 1015.04 1015.27 1015.54 1016.15 1016.62 1016.96 1017.45 1017.76 1018.20 1018.38 1018.82 1019.45 1019.93 1020.23 1020.33 1020.39 1020.43 1020.58 1020.62 1020.56 1020.67 1020.55 1020.71 1020.82
1014.49 1014.23 1013.99 1013.63 1013.35 1013.11 1013.12 1012.99 1012.77 1011.99 1011.85 1011.31 1011.18 1011.32 1011.53 1011.55 1011.67 1011.78 1011.71 1012.04 1012.51 1013.22 1013.45 1013.87 1014.38 1014.97 1015.29 1015.58 1015.93 1016.36 1016.87 1017.21 1017.42 1017.98 1018.26 1018.69 1019.30 1019.87 1020.14 1020.35 1020.43 1020.61 1020.66 1020.72 1020.73 1020.72 1020.82 1020.89 1020.95
1014.83 1014.64 1014.31 1013.86 1013.31 1013.24 1013.28 1012.82 1012.88 1011.97 1011.57 1011.62 1011.38 1011.16 1011.29 1011.43 1011.22 1011.30 1011.79 1012.05 1012.44 1012.93 1013.50 1013.93 1014.26 1014.69 1015.14 1015.66 1015.85 1016.15 1016.68 1017.12 1017.66 1017.79 1017.96 1018.57 1019.06 1019.63 1020.15 1020.39 1020.50 1020.68 1020.67 1020.68 1020.72 1020.78 1020.93 1021.13 1021.11
1015.44 1015.20 1014.53 1013.59 1012.76 1012.99 1012.68 1012.80 1012.45 1011.53 1011.87 1011.86 1011.52 1011.22 1011.00 1010.85 1010.91 1010.89 1010.92 1011.38 1011.72 1012.22 1012.83 1013.48 1013.96 1014.32 1014.81 1015.49 1015.66 1016.11 1016.46 1017.03 1017.54 1017.86 1018.12 1018.56 1018.84 1019.45 1019.99 1020.38 1020.59 1020.68 1020.63 1020.64 1020.69 1020.90 1021.08 1021.31 1021.23
1015.88 1015.60 1014.82 1013.20 1012.65 1012.45 1012.75 1012.63 1011.86 1011.59 1011.95 1011.77 1011.08 1010.98 1010.87 1010.51 1010.41 1010.40 1010.38 1010.52 1010.91 1011.54 1012.28 1013.03 1013.39 1014.05 1014.55 1015.18 1015.56 1016.00 1016.36 1016.90 1017.45 1017.55 1018.12 1018.57 1018.85 1019.34 1019.89 1020.36 1020.56 1020.61 1020.57 1020.74 1020.98 1021.23 1021.48 1021.43 1021.44
1016.44 1016.11 1015.26 1014.10 1012.78 1012.61 1012.87 1012.59 1011.73 1011.44 1011.69 1011.60 1011.20 1010.93 1010.85 1010.47 1010.17 1009.74 1009.55 1009.54 1010.14 1010.65 1011.58 1012.53 1013.00 1013.50 1014.22 1014.89 1015.56 1015.99 1016.29 1016.82 1017.35 1017.61 1018.10 1018.51 1018.89 1019.36 1019.79 1020.12 1020.41 1020.43 1020.57 1020.93 1021.16 1021.41 1021.49 1021.42 1021.48
1017.10 1016.68 1015.80 1015.15 1013.93 1013.58 1013.48 1013.21 1012.15 1011.64 1011.58 1011.33 1010.96 1010.81 1010.71 1010.57 1010.07 1009.47 1009.11 1009.03 1009.61 1010.19 1010.90 1011.71 1012.61 1013.35 1014.07 1014.86 1015.55 1016.24 1016.55 1016.87 1017.23 1017.74 1017.96 1018.38 1018.81 1019.28 1019.69 1020.09 1020.29 1020.31 1020.75 1021.18 1021.37 1021.46 1021.34 1021.36 1021.51
1017.18 1016.94 1016.38 1015.51 1014.76 1014.37 1013.73 1013.33 1012.47 1011.42 1011.24 1011.05 1010.79 1010.84 1010.88 1010.51 1009.63 1009.25 1009.16 1009.24 1009.49 1010.10 1010.64 1011.30 1012.12 1012.99 1013.79 1014.59 1015.19 1016.11 1016.43 1017.02 1017.36 1017.81 1018.03 1018.41 1018.77 1019.23 1019.52 1020.01 1020.30 1020.37 1020.82 1021.19 1021.37 1021.44 1021.36 1021.47 1021.60
1016.97 1017.03 1016.69 1015.87 1015.06 1015.14 1014.25 1013.36 1012.40 1011.21 1010.91 1010.52 1010.36 1011.12 1011.20 1011.04 1010.67 1010.21 1009.72 1009.42 1009.85 1009.90 1010.30 1010.97 1011.47 1012.26 1013.19 1014.13 1014.91 1015.60 1016.42 1016.98 1017.01 1017.74 1018.28 1018.45 1018.84 1019.10 1019.39 1019.90 1020.26 1020.43 1020.94 1021.17 1021.34 1021.27 1021.47 1021.73 1021.79
1016.73 1016.95 1016.81 1016.64 1016.04 1015.53 1015.09 1013.88 1012.63 1011.35 1011.49 1010.90 1011.49 1012.12 1012.38 1012.41 1012.16 1011.75 1011.29 1011.05 1010.65 1010.08 1010.38 1010.61 1011.13 1011.63 1012.51 1013.62 1014.79 1015.67 1016.58 1017.24 1017.76 1018.09 1018.30 1018.58 1018.81 1019.08 1019.33 1019.72 1020.09 1020.42 1020.74 1021.17 1021.25 1021.18 1021.38 1021.82 1022.19
1016.72 1016.53 1016.77 1017.05 1017.21 1017.33 1016.58 1016.25 1014.18 1012.53 1013.04 1012.66 1012.95 1013.02 1013.16 1012.93 1012.72 1012.60 1012.32 1011.86 1011.61 1011.15 1010.35 1010.01 1010.52 1011.33 1012.17 1013.06 1014.00 1014.71 1015.24 1016.12 1016.73 1017.38 1018.19 1018.61 1018.84 1019.09 1019.24 1019.63 1019.99 1020.37 1020.76 1021.08 1021.03 1021.07 1021.42 1021.67 1022.19
1016.40 1016.51 1017.09 1017.70 1018.26 1018.35 1017.51 1017.27 1014.52 1013.80 1013.92 1014.01 1014.07 1013.98 1013.97 1013.99 1013.91 1013.73 1013.42 1012.93 1012.27 1011.44 1010.58 1010.32 1010.30 1011.05 1011.73 1012.49 1013.26 1014.23 1015.06 1015.71 1016.36 1017.24 1018.11 1018.60 1018.96 1019.11 1019.21 1019.53 1019.98 1020.42 1020.84 1021.01 1021.01 1021.11 1021.32 1021.65 1022.12
1016.45 1017.07 1017.76 1018.36 1019.36 1019.64 1017.87 1017.25 1015.32 1014.14 1014.40 1014.79 1014.96 1014.99 1015.08 1014.97 1014.73 1014.41 1014.03 1013.46 1012.80 1012.05 1011.30 1010.97 1010.64 1010.94 1011.61 1012.27 1012.95 1013.81 1014.65 1015.43 1016.26 1016.96 1017.83 1018.47 1018.94 1019.21 1019.20 1019.52 1019.87 1020.27 1020.73 1021.02 1021.21 1021.19 1021.29 1021.67 1022.04
1017.08 1018.34 1019.83 1020.49 1020.98 1020.19 1018.19 1017.45 1015.06 1014.91 1015.09 1015.47 1015.83 1016.11 1016.15 1015.99 1015.56 1015.20 1014.75 1014.19 1013.64 1013.07 1012.48 1011.94 1011.74 1011.26 1011.63 1012.21 1012.87 1013.50 1014.27 1015.22 1015.87 1016.43 1017.08 1017.88 1018.61 1019.04 1019.16 1019.43 1019.71 1020.17 1020.56 1020.94 1021.19 1021.27 1021.42 1021.81 1022.14
1017.66 1018.92 1020.55 1021.58 1021.86 1020.97 1018.61 1017.07 1015.61 1015.49 1015.83 1016.21 1016.62 1017.00 1017.00 1016.79 1016.60 1016.36 1016.02 1015.61 1014.95 1014.21 1013.49 1012.96 1012.75 1012.41 1012.02 1012.16 1012.74 1013.30 1014.02 1014.79 1015.51 1016.12 1016.57 1017.08 1017.59 1018.24 1018.74 1019.12 1019.43 1019.91 1020.40 1020.91 1021.27 1021.43 1021.49 1021.98 1022.33
1018.09 1019.00 1019.59 1021.18 1022.58 1021.81 1019.66 1017.45 1016.79 1016.54 1016.95 1017.26 1017.40 1017.44 1017.73 1017.80 1017.62 1017.40 1017.01 1016.62 1015.98 1015.37 1014.65 1014.07 1013.34 1012.81 1012.54 1012.46 1012.69 1013.26 1013.81 1014.45 1015.04 1015.71 1016.34 1016.77 1017.20 1017.86 1018.39 1018.78 1019.32 1019.78 1020.41 1020.79 1021.28 1021.45 1021.56 1022.07 1022.52
1018.34 1019.28 1020.40 1021.71 1022.75 1022.26 1019.82 1018.14 1017.13 1017.61 1018.18 1018.30 1018.13 1018.40 1018.73 1018.75 1018.51 1018.20 1017.90 1017.38 1016.82 1016.39 1015.65 1014.71 1014.03 1013.44 1012.80 1012.58 1012.60 1013.00 1013.55 1014.03 1014.61 1015.33 1016.01 1016.52 1016.97 1017.52 1018.09 1018.65 1019.10 1019.68 1020.32 1020.64 1021.09 1021.41 1021.67 1022.17 1022.69
1019.65 1020.21 1021.34 1022.13 1022.58 1022.46 1021.09 1019.06 1018.38 1018.60 1018.92 1019.06 1019.26 1019.33 1019.49 1019.49 1019.31 1019.01 1018.54 1018.03 1017.56 1016.94 1016.37 1015.58 1014.66 1013.97 1013.43 1012.97 1012.86 1013.01 1013.41 1013.84 1014.39 1014.97 1015.64 1016.24 1016.73 1017.14 1017.74 1018.34 1018.87 1019.60 1020.17 1020.58 1020.98 1021.38 1021.90 1022.34 1022.81
1020.80 1021.61 1022.43 1023.51 1023.88 1023.49 1022.40 1019.91 1018.97 1018.82 1019.21 1019.19 1019.66 1020.03 1020.13 1020.03 1019.87 1019.51 1019.05 1018.50 1017.96 1017.30 1016.72 1016.21 1015.50 1014.73 1013.97 1013.48 1013.17 1013.18 1013.29 1013.68 1014.15 1014.64 1015.16 1015.82 1016.50 1017.04 1017.45 1018.17 1018.73 1019.32 1019.85 1020.36 1020.79 1021.29 1021.88 1022.36 1022.88
Wind_Speed
5 6 2 4 3 4 3 7 6 6 1 2 1 5 2 4 3 3 3 12 18 16 10 11 13 14 14 14 13 13 13 15 16 17 17 17 17 16 15 14 13 13 15 15 13 12 12 12 9
3 4 1 0 4 2 6 10 14 8 4 6 5 4 4 2 3 6 5 13 16 15 12 10 12 14 14 15 13 13 14 15 16 17 17 17 16 16 15 15 13 13 13 14 13 12 12 12 11
4 4 3 4 4 5 5 5 6 1 0 3 3 3 1 3 3 4 5 16 13 13 12 11 12 13 14 14 14 14 15 15 16 16 17 16 16 15 15 14 13 13 13 12 12 11 11 11 11
2 3 4 2 6 8 14 9 3 2 6 3 3 2 3 2 4 7 13 15 12 11 13 14 13 14 13 14 14 14 15 15 15 16 16 15 15 14 14 15 14 13 12 11 10 10 10 9 8
1 1 3 4 7 9 9 9 6 2 1 4 5 4 1 3 6 8 13 11 12 9 9 12 13 14 13 14 15 14 14 15 15 16 16 16 14 13 13 13 14 13 12 11 11 11 10 9 8
1 2 1 8 7 9 10 11 7 5 2 5 3 1 4 5 5 7 11 9 10 12 11 10 10 11 12 12 13 12 12 14 16 15 15 14 13 13 13 13 13 13 12 11 10 9 8 8 8
3 2 5 4 5 7 10 13 7 7 4 5 1 2 3 6 7 7 9 9 8 11 11 9 7 9 11 11 11 12 15 16 16 16 16 14 12 13 13 12 12 12 12 11 10 9 8 7 8
4 2 3 3 4 10 6 2 4 4 3 5 7 4 4 5 9 8 8 8 8 9 9 10 7 6 6 7 12 13 14 16 17 17 16 14 13 13 12 10 11 11 11 10 10 9 8 8 6
4 1 3 5 6 7 10 4 3 0 3 2 3 1 4 8 7 5 5 6 8 8 8 8 8 8 8 9 10 13 15 15 15 14 14 10 5 6 7 9 10 10 9 9 10 9 10 11 11
5 5 6 5 7 4 7 8 6 3 4 3 5 4 7 8 5 7 8 8 7 8 7 9 10 10 10 7 7 7 8 6 6 6 6 5 6 5 6 6 8 7 5 7 7 10 10 8 4
4 5 6 11 13 7 7 6 6 4 3 4 5 3 5 3 6 8 6 6 11 12 7 7 9 10 11 8 4 3 3 4 5 6 5 6 5 4 3 2 2 2 5 3 5 5 4 5 4
4 6 6 7 12 4 6 7 8 4 7 7 9 3 5 6 7 8 7 7 6 11 13 9 10 8 8 7 6 5 5 4 4 4 6 5 3 4 3 3 3 3 2 4 4 3 4 5 4
6 5 7 8 9 9 6 7 6 10 9 12 9 3 4 8 8 6 8 6 6 8 9 12 12 8 7 8 7 5 5 5 6 6 6 5 5 4 4 3 3 3 3 3 3 3 4 4 4
4 6 7 6 9 7 7 9 2 6 7 9 10 11 8 8 8 6 7 8 9 10 10 9 10 9 8 7 8 5 4 4 3 4 6 6 5 5 4 4 4 3 2 2 2 3 3 3 2
5 8 8 7 13 7 6 8 10 14 6 12 15 10 10 8 8 9 10 11 14 13 14 14 13 11 11 10 7 6 7 7 6 4 6 7 6 6 6 4 4 3 2 3 4 4 3 3 3
3 2 4 5 5 7 10 10 7 8 3 12 15 10 9 11 8 8 9 11 14 13 15 13 12 13 12 9 6 6 6 5 4 6 5 6 7 7 5 4 4 3 3 3 3 3 2 2 3
3 3 4 6 5 3 6 7 7 6 5 9 7 9 9 9 9 9 12 10 15 16 16 14 13 14 13 8 6 6 7 7 5 5 5 6 6 6 5 4 4 4 4 3 2 2 1 2 3
1 4 5 5 5 7 8 8 9 8 8 10 13 9 8 9 10 10 12 8 12 15 15 15 12 14 12 7 6 4 5 5 5 5 5 7 5 6 6 4 4 4 4 3 2 2 1 2 2
5 6 8 6 9 7 7 6 10 14 8 10 12 7 8 10 9 8 6 4 10 12 15 16 16 14 11 9 10 7 8 6 4 4 7 7 6 6 6 4 4 4 4 3 2 1 3 4 3
2 4 7 8 6 8 9 16 17 18 14 16 14 6 7 7 10 10 10 2 8 14 15 16 16 16 12 9 7 4 4 1 5 4 5 6 6 6 6 6 5 5 4 4 3 2 2 2 3
3 4 5 8 5 5 6 9 5 5 7 16 17 13 13 11 12 14 14 11 7 11 14 16 16 18 15 13 7 5 4 4 3 3 4 5 6 6 7 6 5 5 4 4 3 3 3 3 2
4 2 2 4 6 2 6 7 5 7 9 15 15 15 15 18 17 17 16 14 9 8 9 17 17 17 14 16 13 14 13 10 4 6 4 5 6 6 6 6 6 5 4 5 3 3 2 3 3
5 1 2 3 4 4 4 4 9 4 6 8 10 11 12 13 13 15 15 13 11 11 7 11 15 15 14 16 15 12 11 7 6 6 8 5 5 6 6 6 6 6 4 4 5 4 4 2 3
2 3 4 0 2 4 8 6 7 1 10 8 10 13 11 11 12 12 14 15 14 13 12 4 12 14 14 16 15 15 13 10 9 10 8 6 4 4 6 6 6 6 5 5 4 4 5 4 4
2 5 5 7 3 7 6 3 8 10 10 15 13 15 14 15 16 15 16 17 17 17 14 9 4 9 11 14 12 13 11 11 12 12 10 10 7 4 7 6 6 5 5 5 5 5 5 4 4
5 7 7 6 2 4 7 4 2 15 15 15 15 11 12 17 15 17 15 15 15 16 16 13 9 5 6 10 9 8 9 7 7 10 9 8 9 7 8 7 6 7 6 5 5 4 4 5 5
3 4 6 4 1 4 5 4 8 12 14 14 15 13 14 15 15 15 15 15 15 16 16 13 11 7 5 6 7 8 8 10 10 9 8 7 7 7 9 8 7 7 6 6 6 4 5 5 3
3 1 2 3 1 4 4 5 5 8 10 13 17 12 11 13 14 12 12 13 13 13 13 15 12 8 5 6 7 8 8 9 9 9 10 9 8 9 10 9 9 8 7 7 6 5 5 5 3
5 4 2 1 4 6 2 3 6 11 9 11 11 7 10 10 10 11 9 10 11 10 12 13 14 11 8 4 5 6 7 8 9 9 8 9 9 11 11 10 10 9 8 7 7 6 6 5 5
3 2 3 3 5 2 2 6 11 11 10 15 12 6 6 6 6 8 8 10 11 11 11 11 12 13 10 7 5 6 6 7 9 10 9 9 10 10 11 11 11 10 9 8 8 8 8 7 6
Wind_Direction
310 285 314 8 50 80 240 250 238 290 321 58 58 66 221 196 242 229 251 122 126 129 136 134 133 130 129 126 124 119 115 112 112 112 110 110 107 104 102 98 99 102 101 100 97 94 87 89 90
321 283 354 44 127 207 265 245 254 239 184 98 50 14 11 69 103 128 87 139 130 133 139 139 134 134 137 126 130 127 121 118 116 114 112 110 109 107 100 95 90 91 95 89 89 90 86 80 75
300 221 99 160 187 196 236 235 230 199 294 122 125 135 225 118 72 123 128 130 130 136 135 139 136 136 132 131 132 126 120 121 119 118 116 114 109 105 102 98 93 93 94 93 89 87 79 77 73
218 358 351 158 238 241 222 251 274 20 357 130 124 300 56 315 135 156 122 133 134 142 135 141 143 141 140 143 135 131 129 129 128 124 119 115 112 109 106 99 97 102 96 92 92 90 87 81 70
312 28 210 212 246 267 254 245 233 163 216 207 140 239 114 357 113 123 127 127 122 127 124 141 146 144 142 143 139 138 138 133 126 118 117 115 114 110 111 111 109 106 102 98 92 85 78 71 62
360 133 221 228 257 258 268 247 195 174 215 315 126 226 188 150 131 128 126 121 137 130 134 139 141 139 137 135 133 134 132 129 122 119 116 115 114 112 110 106 102 101 98 91 82 76 70 62 50
147 68 221 241 239 261 250 279 178 187 200 246 317 194 195 166 175 140 125 122 130 128 133 139 141 145 137 135 128 123 122 119 112 110 107 103 109 112 107 103 99 96 90 82 71 58 49 45 39
128 141 265 258 267 278 277 282 155 132 247 309 144 237 221 228 150 140 128 126 129 132 134 134 128 121 114 119 111 110 110 109 109 105 101 101 97 95 89 80 92 87 82 73 61 48 40 34 20
156 212 227 229 240 264 307 217 303 170 161 235 251 68 215 127 118 131 111 112 126 132 137 127 124 114 108 111 111 105 109 112 110 110 118 111 98 93 86 87 93 89 80 70 58 45 37 40 31
155 193 226 252 260 317 334 347 328 343 330 231 287 97 152 133 153 155 168 160 160 128 122 132 127 126 118 120 114 121 124 118 120 133 131 115 115 117 111 110 102 94 86 51 61 60 43 35 29
234 235 271 279 293 306 295 313 314 0 301 222 245 340 160 179 177 170 192 175 174 141 136 142 137 143 140 140 132 143 121 122 136 145 130 122 112 110 113 112 76 72 72 44 53 43 43 34 29
286 264 244 273 292 324 306 293 310 264 242 284 290 239 133 173 184 186 204 195 164 155 155 148 141 153 154 144 151 157 148 154 154 152 131 122 121 130 133 122 102 79 56 61 53 46 36 30 21
225 248 264 276 281 295 299 280 259 279 285 287 297 313 224 176 209 220 207 172 148 163 153 159 150 154 155 150 155 156 148 158 153 160 139 132 133 136 128 121 106 88 81 71 57 49 36 19 0
293 323 303 289 287 281 279 280 276 266 264 287 281 274 245 229 220 206 191 191 160 154 154 153 160 161 161 165 168 158 149 138 143 160 139 144 139 138 139 132 111 94 98 83 80 64 41 359 3
329 316 301 245 250 244 190 289 233 254 247 254 260 265 263 229 245 231 196 189 174 175 164 171 167 169 169 182 165 170 166 154 154 141 128 137 133 146 141 132 119 131 107 81 57 45 41 33 13
270 236 304 296 342 243 141 262 255 266 291 265 249 240 242 260 237 234 241 193 181 167 176 170 170 173 169 179 167 174 146 125 153 133 130 133 134 137 138 132 131 138 100 85 70 60 41 32 41
267 240 227 297 267 299 159 251 272 294 287 296 282 256 253 256 256 241 221 202 178 171 161 170 173 172 170 160 160 160 146 144 144 140 138 135 135 142 134 131 139 124 100 83 76 67 133 64 25
310 303 316 287 312 342 293 274 291 281 284 273 277 271 247 242 248 262 241 206 170 167 164 164 170 171 164 147 135 139 132 140 139 149 144 142 141 139 128 129 134 121 107 96 81 99 17 93 39
312 307 294 287 290 312 280 261 273 283 272 265 268 255 270 263 251 254 277 239 165 164 160 163 162 165 161 161 161 162 170 160 138 147 146 146 146 149 137 136 137 121 125 148 144 136 74 38 24
277 314 291 297 294 331 291 291 279 274 272 263 255 293 314 329 332 328 323 179 170 173 170 165 170 168 169 173 172 154 149 154 142 139 145 149 152 150 143 146 144 135 131 120 111 96 90 88 38
271 227 253 257 316 294 313 303 323 302 352 57 52 65 47 36 17 5 359 1 315 174 178 175 175 176 171 162 148 125 100 90 100 167 148 164 155 157 142 144 140 135 130 146 145 121 122 134 55
281 254 2 331 11 263 71 288 310 301 61 61 60 55 49 36 28 17 5 354 341 318 218 178 178 180 173 162 168 173 183 176 183 172 151 159 156 156 145 141 138 137 137 144 153 130 136 116 142
207 38 301 277 286 359 301 92 275 109 63 67 60 52 48 44 32 19 6 352 337 344 264 198 179 181 172 173 178 176 185 178 151 146 152 153 156 157 148 143 141 139 142 148 137 132 121 103 123
53 12 323 258 113 4 243 154 283 35 134 104 69 43 34 28 22 19 15 12 3 356 358 274 178 181 174 180 181 184 184 165 158 160 164 165 158 165 156 152 147 144 143 146 148 134 114 112 98
103 60 347 360 13 224 293 113 233 113 102 84 72 51 38 26 19 9 12 11 6 1 355 358 311 179 175 182 183 181 177 176 173 169 171 166 169 179 176 158 150 146 149 145 145 133 120 115 108
185 151 155 221 222 276 323 256 35 111 92 76 63 49 45 28 21 14 4 5 358 358 355 351 352 303 191 179 176 174 166 167 173 178 173 178 179 172 162 157 148 146 141 142 141 129 120 115 107
278 156 179 119 78 65 224 279 89 92 72 58 50 36 38 24 16 9 5 1 0 355 349 343 337 330 233 186 161 169 163 167 173 174 173 174 156 161 160 155 148 142 146 148 145 135 125 122 121
160 267 79 352 175 243 264 232 170 95 61 36 28 29 32 15 6 359 359 356 358 354 349 345 341 330 286 195 177 174 174 174 167 161 173 171 158 156 156 153 151 147 155 151 143 138 137 127 140
0 8 21 181 170 188 215 227 104 100 71 37 21 40 24 360 352 346 346 349 344 344 348 347 345 342 332 249 200 173 173 169 162 168 163 167 157 159 161 160 154 156 157 150 141 130 132 142 155
66 80 84 168 274 282 206 254 150 100 48 20 18 49 2 338 334 336 337 338 337 340 340 342 342 337 330 296 239 198 168 163 166 168 165 158 163 164 161 160 159 160 160 154 149 152 156 162 168